FENGYUN 1C DEB

Satellite information

Favourite Embed

Satellite Type and Status

DEBRISIN ORBIT

Key statistics

Satellite FENGYUN 1C DEB at a glance.

Uptime

9496

Days in orbit

Revolutions

≈ 14.1

Per day

Orbit

SSO

Sun Synchronous Orbit

Inclination

98.7

Latest

Satellite identification and parameters

Extended collection of information and parameters for FENGYUN 1C DEB.

Object identification

Identified? True

Debris? True

Object name: FENGYUN 1C DEB

International designator: 1999-025CEK

Object number (NORAD): 31736

Object ID (CCSDS): 31736

Country: PEOPLES REPUBLIC OF CHINA (PRC)

Current information (Y/N): Y

RCS size: SMALL

Orbital parameters

Period: 101.836 minutes

Inclination: 98.6762 deg

SMA: 7223.745 km

Apoapsis: 854.682 km

Periapsis: 836.539 km

RAAN: 133.1067 deg

Eccentricy: 0.0012558

Argument of periapsis: 151.5727 deg

Mean anomaly: 208.6133 deg

Mean motion: 14.14031658 rev/day

Mean motion (dot): 0.00000378 rev/day2

B* drag term: 0.00022128 1/REarth

Two-line elements (TLE)

Creation date: May 4, 2025, 10:26 p.m.

Reference frame: TEME

Reference center: EARTH

Epoch: May 4, 2025, 7:22 p.m. UTC

TLE line 0: 0 FENGYUN 1C DEB

TLE line 1: 1 31736U 99025CEK 25124.80709435 .00000378 00000-0 22128-3 0 9991

TLE line 2: 2 31736 98.6762 133.1067 0012558 151.5727 208.6133 14.14031658925855

Live tracking on map

Real-time ground track for satellite FENGYUN 1C DEB.

In-orbit conjunctions

A list of the most updated potential collisions computed for object FENGYUN 1C DEB.

Target Orbit TCA Probability of collision Miss distance Type
METEOR 1-17 DEB LEO 2024-11-11 18:42:40 0.001998821 78.0 (m) DEBRIS
FENGYUN 1C DEB SSO 2024-11-10 07:49:10 0.0001548954 986.0 (m) DEBRIS

Associated space launch

Chinese polar orbiting meteorological satellite

FENGYUN 1C DEB was lifted into orbit during the mission ‘Long March 4B | Feng Yun 1C’, on board a Long March 4B space rocket.

The launch took place on May 10, 1999, 1:33 a.m. from Launch Complex 7.

For more information about the launch, click the button.

Launch to space Long March 4B | Feng Yun 1C
Long March 4B | Feng Yun 1C

Agency: N/A

Status: Launch Successful

Launch date: May 10, 1999, 1:33 a.m. UTC

Rocket: Long March 4B

Launch pad: Launch Complex 7

Location: Taiyuan Satellite Launch Center, People's Republic of China

...

Latest news about this satellite

There are no fresh news available about this satellite. Check back as we update our databases every day.


Newsletter sign-up

Weekly statistics, charts and insights to help you stay on top of the space industry.